Volver al catálogo

ORESAT0.5

ActivoRadioaficionadoSSO
NORAD 60525·PAYLOAD·🇺🇸 United States

Lanzado Aug 16, 2024 desde Vandenberg Space Force Base

Loading…

Próximos Pases (próximas 24 horas)

TLE

ActualizadoSource: Space-Track

Época: Sep 14, 2026, 04:55 UTC

1 60525U 24149BK  26257.20525119  .00016881  00000-0  32134-3 0  9995
2 60525  97.3682 344.7552 0003776 324.1299  35.9698 15.48280265116232

Sigue ORESAT0.5 en tiempo real con AllMySat

Download on the App Store